Wind_Speed
28 28 34 33 32 32 33 32 32 25 25 21 20 19 14 12 12 15 13 8 8 5 6 8 8 10 16 14 16 19 21 27 25 29 22 15 7 19 25 22 23 21 24 26 27 25 21 15 16
29 26 27 35 34 32 30 29 26 22 18 17 16 14 12 9 10 11 15 14 12 10 9 7 8 7 11 14 13 13 19 24 24 28 26 23 12 6 16 21 23 22 19 21 23 19 17 14 15
34 30 27 27 30 32 28 24 23 21 18 15 14 14 14 13 10 10 11 11 13 12 7 9 13 8 8 11 10 15 17 23 20 26 29 27 22 12 2 12 19 19 21 21 19 19 17 14 15
37 35 32 29 28 29 25 23 21 20 20 21 19 18 15 13 10 7 5 6 9 11 12 13 12 9 9 9 11 12 19 17 17 22 25 24 25 21 15 1 10 12 15 15 17 14 11 16 18
40 38 36 33 32 30 29 26 24 22 22 21 20 18 17 15 13 11 10 9 9 9 10 9 10 9 11 10 12 14 15 13 20 19 19 21 21 22 18 14 12 5 7 13 16 14 17 21 17
42 42 38 36 34 31 28 26 24 23 21 22 20 16 15 15 15 15 14 14 14 14 12 10 9 11 11 11 13 13 14 14 18 19 16 16 16 16 18 16 13 11 11 10 6 5 8 10 8
45 44 41 39 36 33 30 27 25 23 23 23 22 20 18 17 17 17 16 15 13 14 16 16 14 14 10 11 12 13 16 16 16 19 13 15 17 16 12 11 10 8 7 7 6 7 7 5 8
48 46 43 41 37 34 33 31 30 26 25 23 24 23 20 20 19 19 18 16 16 15 15 13 13 14 14 13 12 11 12 13 15 19 16 14 18 16 15 13 14 12 10 10 9 10 10 11 14
46 47 47 43 40 38 37 34 31 29 26 24 24 22 21 20 19 16 16 16 15 12 11 11 11 12 13 14 13 16 16 16 16 17 17 17 20 20 16 15 14 18 18 17 16 17 17 18 19
47 46 46 46 43 41 38 35 33 31 28 27 26 25 23 22 19 18 17 15 13 13 13 13 14 14 13 14 14 15 16 17 18 18 20 21 22 21 22 22 20 20 21 24 23 24 25 25 26
50 49 50 48 46 44 41 39 37 34 32 30 29 27 24 24 23 21 21 20 19 20 19 20 21 21 21 20 20 20 19 18 20 21 22 24 24 25 24 25 26 27 26 26 27 30 30 31 32
53 52 53 53 50 47 46 44 42 39 36 34 33 31 29 28 30 27 26 24 26 27 27 26 26 26 26 27 27 26 27 26 25 23 24 26 27 29 28 31 32 32 31 33 34 35 37 39 40
56 56 55 55 54 53 51 48 45 45 42 39 37 35 35 35 34 32 29 29 31 32 31 30 31 31 32 32 32 33 31 31 31 30 29 27 28 31 33 34 35 35 38 40 40 40 40 42 44
58 58 58 57 56 55 54 51 48 48 46 43 42 40 40 42 40 37 34 34 36 37 37 37 36 37 38 40 40 41 39 38 35 33 36 37 34 33 33 34 37 40 42 44 45 44 45 47 49
62 63 61 60 60 58 57 52 54 51 48 46 45 43 45 46 45 42 41 43 42 43 42 42 42 43 42 44 45 46 45 44 39 37 36 36 39 40 41 42 43 43 44 47 49 50 52 55 55
66 65 65 64 63 62 60 58 57 54 53 51 50 49 51 50 49 47 48 52 51 49 48 47 47 46 47 48 49 50 50 48 45 43 42 41 40 41 43 48 50 50 52 54 54 53 55 55 56
71 68 68 70 69 66 64 64 60 58 55 55 54 54 56 57 54 49 54 57 55 54 53 52 52 51 50 51 52 54 54 53 51 51 51 49 48 50 50 52 53 53 54 58 58 60 62 62 62
77 76 75 75 76 72 69 67 64 63 60 58 60 61 62 62 61 57 60 60 60 59 58 58 58 56 56 56 56 58 58 57 57 57 57 57 58 57 57 60 61 60 61 62 63 64 65 68 70
82 82 79 79 77 78 75 72 70 69 66 65 65 65 65 65 64 62 64 65 65 64 63 63 64 63 62 62 62 62 62 63 64 62 65 65 66 68 67 66 67 65 64 66 67 68 68 70 72
87 85 84 83 83 83 81 77 76 73 71 69 70 68 66 64 66 68 68 67 67 66 65 65 67 68 69 68 67 67 68 69 68 69 71 73 74 75 75 74 72 72 73 72 73 75 77 78 81
86 87 88 88 88 89 88 81 80 78 72 73 72 71 68 68 70 70 68 67 69 72 72 73 73 72 72 71 71 70 71 73 74 75 77 79 80 80 79 80 79 77 77 76 81 86 85 83 84
86 89 88 88 89 89 86 84 82 78 75 73 69 69 70 73 75 72 73 72 72 71 71 70 69 70 71 71 73 76 78 80 80 80 81 83 85 84 84 84 81 80 82 83 90 95 93 91 89
88 88 87 88 84 84 81 80 74 72 73 73 73 73 72 74 75 74 78 78 76 76 75 76 76 76 77 78 79 81 83 82 83 85 86 89 89 88 87 87 88 90 92 93 97 100 99 97 95
93 93 94 93 90 85 82 80 72 73 75 78 80 80 81 83 83 84 85 84 83 84 84 83 82 82 82 83 85 86 88 89 90 91 92 93 94 94 92 92 94 96 99 102 104 107 106 102 99
100 99 96 99 99 92 90 88 78 81 81 86 88 88 89 90 91 93 93 92 92 92 93 93 93 94 93 93 94 94 94 94 95 98 99 98 99 99 99 100 101 103 106 108 112 112 110 103 98
111 111 109 108 103 101 102 94 87 86 89 93 95 94 95 96 95 95 97 97 99 100 100 100 100 98 99 101 100 100 100 100 100 101 102 104 102 104 107 109 110 112 113 115 116 114 108 105 102
119 114 118 119 114 111 104 99 96 91 94 96 100 101 101 102 102 102 102 103 104 104 104 102 102 102 103 104 105 104 104 105 105 103 106 108 108 109 111 114 116 118 120 123 121 115 111 108 106
122 122 123 123 121 119 110 109 101 103 102 105 104 106 107 108 110 109 108 107 106 105 106 106 108 109 108 108 109 111 111 110 110 111 113 111 113 119 119 120 122 125 127 125 122 117 112 110 112
123 125 126 126 126 123 119 117 110 104 105 111 113 114 115 114 116 116 115 114 112 109 110 111 111 113 114 115 115 117 117 116 116 118 118 119 122 124 125 126 129 129 128 123 118 116 116 119 121
124 124 128 128 125 129 126 113 110 112 115 115 116 115 115 119 121 121 122 121 119 120 119 119 118 117 118 119 121 123 123 124 124 125 125 126 129 130 131 131 131 127 122 120 120 122 124 128 131
Wind_Direction
235 239 236 237 241 244 250 255 260 271 276 281 286 289 287 266 265 284 286 284 297 326 8 340 328 353 14 28 27 25 25 16 14 16 27 28 264 241 236 243 249 247 247 251 257 271 278 283 274
235 236 236 238 241 246 255 260 262 271 275 279 281 276 278 274 271 278 279 272 284 278 300 314 333 320 351 5 19 16 13 14 10 18 23 28 31 263 245 241 245 246 251 249 259 262 273 280 283
233 232 231 236 240 244 251 256 258 259 264 260 259 267 272 268 266 274 278 267 274 277 281 298 326 307 329 337 341 1 360 2 10 9 21 17 27 39 256 254 249 253 258 266 268 267 270 272 289
236 235 235 237 237 239 244 248 248 249 251 253 252 255 254 256 244 243 253 267 281 276 272 278 298 313 314 328 330 340 342 11 7 7 11 18 17 24 46 66 255 256 253 258 259 266 255 273 287
238 238 237 240 245 245 246 248 251 251 245 244 247 250 245 245 242 237 243 251 264 267 270 278 287 276 288 309 314 321 337 346 352 355 4 11 16 17 26 38 43 17 275 262 252 249 255 259 263
237 238 240 243 245 245 247 247 249 249 247 244 249 246 246 243 245 247 250 256 260 264 267 273 281 285 282 285 303 313 316 310 332 349 342 358 2 13 15 21 30 29 23 12 342 286 273 252 241
234 236 238 241 242 242 243 243 245 243 248 251 252 248 238 233 239 246 251 252 254 265 271 272 268 276 275 276 284 300 308 300 309 335 329 350 340 345 360 8 3 360 349 348 332 333 328 301 295
233 234 235 241 239 241 239 244 246 245 245 250 250 250 247 243 245 243 244 249 258 263 265 268 274 282 282 279 278 279 287 295 298 315 313 329 339 319 324 333 337 329 324 320 310 305 299 289 294
234 235 235 236 237 240 241 244 241 240 243 247 249 245 247 254 252 251 247 245 248 255 266 272 285 293 293 295 289 287 285 290 290 294 299 294 314 318 295 300 310 315 312 310 305 300 298 296 293
233 236 234 233 235 238 239 239 238 240 245 247 248 248 250 248 249 259 265 264 259 262 273 280 287 293 299 309 304 296 297 294 288 287 291 288 294 299 310 296 289 297 299 300 299 298 293 290 289
232 234 235 234 237 237 240 237 239 240 243 247 248 247 248 249 245 251 264 264 267 268 274 278 282 286 292 296 295 298 299 297 292 290 292 288 288 290 294 294 293 288 286 296 290 290 288 290 289
233 234 237 237 240 242 242 241 239 241 244 247 247 249 252 254 249 252 260 264 265 265 268 273 276 278 283 285 289 290 292 293 293 291 292 286 282 279 284 285 286 286 283 282 284 285 285 288 288
234 234 238 240 241 244 244 243 244 243 244 247 250 253 254 256 256 256 261 266 266 268 270 270 274 277 280 282 284 287 289 287 286 285 282 280 282 278 274 275 279 280 282 281 278 277 279 281 283
236 237 238 243 243 244 245 244 246 245 245 247 252 256 259 259 260 260 261 264 266 268 270 274 275 281 281 285 286 288 287 286 280 279 278 278 276 274 276 278 274 276 280 279 278 279 281 284 280
237 238 238 242 245 246 245 246 246 243 242 247 251 255 259 262 262 262 262 264 264 265 268 273 274 278 279 282 284 286 286 286 282 283 284 280 279 279 279 284 285 278 274 278 281 279 279 280 281
237 239 241 243 245 245 246 248 248 246 245 249 253 255 257 260 261 261 263 266 264 266 270 272 274 278 280 282 282 286 287 288 287 286 285 284 284 282 281 283 284 282 278 276 273 274 275 277 277
238 239 241 242 244 245 246 251 249 250 249 250 254 256 259 261 261 261 263 264 265 265 269 272 274 277 279 282 283 285 286 289 289 289 289 288 288 289 288 288 288 286 282 278 278 277 274 274 274
239 238 239 241 243 244 246 249 249 251 251 253 254 256 258 259 261 262 262 262 264 264 266 269 271 274 276 280 284 286 286 287 288 287 288 289 290 290 290 292 292 290 287 285 282 279 277 276 275
241 241 241 243 245 245 246 248 249 252 252 254 257 260 261 261 264 263 261 262 264 264 265 267 270 272 274 278 281 283 284 284 287 285 286 288 290 292 294 293 294 292 291 290 287 283 282 281 281
244 246 246 246 247 249 248 247 250 251 254 257 261 266 268 270 266 262 262 262 264 264 266 268 270 273 275 278 279 282 283 283 283 284 287 289 290 291 292 293 293 292 292 292 291 289 287 286 283
243 245 247 248 248 248 249 248 251 253 255 258 263 267 267 265 267 267 265 265 266 265 266 267 268 270 272 276 277 280 282 284 286 287 288 288 289 290 290 292 293 294 294 293 295 296 293 289 285
246 247 248 249 250 250 251 251 252 255 257 260 263 265 266 266 267 267 264 263 264 265 267 271 273 275 274 275 276 278 281 282 284 284 284 285 286 288 289 291 293 296 296 295 300 301 297 292 288
245 246 249 249 249 250 252 252 252 254 259 259 260 262 263 264 263 263 263 263 265 266 268 270 273 274 275 276 276 277 279 281 282 282 284 286 286 287 289 291 293 294 297 296 299 301 298 294 291
245 246 246 248 248 247 250 249 246 251 254 256 258 257 258 259 259 260 261 263 264 266 268 270 273 275 276 277 278 279 280 281 282 282 283 284 285 286 287 290 293 294 296 298 298 300 297 293 290
248 249 250 251 248 247 247 249 242 247 250 255 256 258 259 260 261 262 264 266 267 269 270 272 273 275 276 277 277 277 278 280 281 282 283 284 284 285 288 291 293 294 296 297 297 298 295 292 290
244 245 247 249 248 249 248 247 248 248 250 252 256 258 262 263 263 264 266 268 270 272 273 275 277 279 280 279 277 277 279 281 282 281 282 284 285 288 289 291 293 295 296 296 296 295 292 290 290
245 245 247 247 247 248 249 248 247 249 251 254 256 257 259 261 263 264 266 267 269 272 274 275 275 278 280 280 280 281 282 284 284 284 286 285 285 289 291 291 292 293 294 294 293 292 290 288 288
246 246 248 249 249 250 250 251 252 252 253 256 258 260 261 262 262 264 265 266 269 271 273 273 275 277 280 281 281 282 284 285 284 284 287 287 287 289 290 290 290 291 292 293 292 290 291 290 292
246 248 251 252 251 252 251 252 253 255 256 259 261 262 261 262 263 264 266 268 269 271 273 274 275 276 279 282 282 282 283 284 284 284 286 286 288 288 289 288 289 291 290 290 291 292 292 292 292
245 247 249 252 255 255 254 250 256 256 257 258 261 263 264 264 264 265 266 268 270 272 273 275 276 278 279 280 280 280 281 283 284 285 286 287 287 288 287 288 289 290 291 291 292 292 292 290 289
Height
10856 10858 10860 10863 10866 10869 10871 10873 10876 10878 10879 10880 10880 10881 10881 10882 10882 10883 10883 10883 10883 10883 10882 10882 10881 10880 10879 10878 10876 10875 10873 10870 10868 10865 10860 10857 10857 10858 10861 10863 10866 10867 10868 10869 10870 10870 10870 10869 10870
10852 10855 10856 10859 10862 10864 10868 10870 10873 10875 10876 10877 10878 10878 10878 10879 10879 10880 10880 10881 10881 10881 10881 10880 10880 10879 10879 10877 10877 10876 10873 10871 10869 10865 10862 10859 10857 10856 10857 10859 10862 10864 10866 10867 10868 10868 10868 10868 10869
10848 10851 10853 10855 10857 10861 10865 10867 10870 10872 10873 10874 10875 10876 10876 10876 10877 10877 10877 10878 10878 10879 10879 10879 10878 10878 10877 10876 10875 10875 10874 10872 10870 10866 10864 10861 10859 10856 10856 10858 10859 10862 10864 10865 10866 10866 10866 10867 10867
10842 10846 10848 10851 10854 10858 10861 10864 10866 10868 10870 10870 10872 10873 10874 10874 10875 10875 10875 10875 10876 10876 10876 10877 10877 10876 10875 10875 10874 10873 10873 10872 10870 10868 10866 10864 10861 10859 10857 10857 10858 10860 10861 10862 10863 10864 10865 10866 10867
10836 10840 10843 10846 10850 10854 10857 10859 10861 10863 10865 10866 10868 10869 10870 10872 10872 10872 10872 10872 10872 10872 10872 10873 10874 10873 10873 10873 10872 10871 10871 10871 10869 10868 10867 10865 10864 10862 10860 10859 10858 10858 10859 10859 10860 10861 10863 10863 10863
10831 10834 10838 10841 10845 10849 10852 10854 10856 10859 10861 10863 10864 10866 10867 10868 10869 10869 10869 10869 10870 10870 10870 10870 10870 10870 10870 10870 10869 10868 10868 10868 10867 10867 10867 10865 10864 10863 10861 10859 10859 10859 10859 10859 10858 10858 10859 10860 10862
10824 10828 10832 10835 10839 10844 10847 10849 10851 10854 10856 10858 10860 10862 10863 10864 10865 10866 10867 10867 10867 10867 10868 10868 10867 10867 10867 10866 10866 10866 10865 10865 10865 10865 10865 10865 10864 10863 10862 10861 10861 10861 10861 10860 10860 10860 10860 10860 10860
10816 10821 10826 10830 10834 10838 10842 10844 10847 10849 10851 10853 10855 10857 10859 10860 10861 10862 10863 10864 10865 10865 10866 10865 10866 10865 10864 10864 10863 10863 10863 10862 10863 10863 10863 10863 10863 10862 10862 10862 10862 10861 10861 10860 10859 10859 10858 10858 10858
10809 10814 10819 10823 10827 10831 10835 10839 10841 10844 10846 10849 10851 10853 10854 10856 10857 10858 10860 10861 10862 10863 10863 10863 10863 10863 10862 10862 10862 10862 10861 10860 10860 10859 10859 10859 10860 10859 10859 10860 10860 10860 10859 10859 10857 10857 10856 10856 10855
10802 10806 10813 10815 10820 10825 10829 10833 10836 10838 10841 10844 10846 10848 10849 10851 10853 10854 10856 10858 10859 10859 10860 10860 10859 10859 10860 10860 10859 10859 10858 10858 10858 10858 10857 10856 10856 10856 10856 10856 10857 10857 10857 10856 10856 10855 10854 10852 10851
10794 10799 10804 10809 10812 10816 10821 10826 10829 10832 10836 10838 10841 10843 10844 10846 10848 10850 10852 10854 10855 10855 10855 10855 10855 10855 10855 10855 10855 10855 10855 10855 10854 10854 10854 10854 10853 10853 10853 10852 10852 10852 10853 10852 10852 10851 10850 10849 10847
10785 10792 10795 10800 10804 10808 10814 10818 10823 10826 10829 10832 10834 10837 10840 10840 10842 10845 10847 10849 10850 10849 10849 10850 10849 10849 10850 10850 10850 10850 10850 10850 10850 10850 10849 10849 10849 10849 10848 10848 10848 10847 10845 10845 10845 10844 10843 10842 10841
10776 10783 10788 10791 10796 10800 10803 10810 10816 10819 10821 10826 10828 10831 10833 10834 10836 10839 10842 10843 10842 10841 10842 10843 10843 10844 10844 10845 10845 10845 10846 10845 10844 10843 10842 10842 10842 10842 10842 10841 10842 10841 10840 10839 10837 10836 10834 10833 10832
10770 10775 10779 10782 10786 10790 10795 10801 10806 10808 10813 10818 10820 10824 10826 10827 10829 10833 10836 10835 10833 10833 10834 10835 10835 10836 10837 10837 10837 10837 10837 10837 10837 10836 10835 10835 10835 10835 10835 10834 10834 10834 10832 10831 10829 10827 10826 10825 10823
10757 10763 10770 10775 10776 10781 10785 10793 10792 10800 10805 10809 10812 10816 10816 10817 10821 10826 10827 10825 10824 10825 10826 10827 10827 10828 10829 10829 10828 10827 10828 10827 10828 10828 10827 10827 10828 10828 10827 10826 10826 10826 10823 10821 10819 10818 10816 10815 10813
10745 10753 10760 10763 10764 10769 10773 10778 10782 10789 10796 10800 10803 10805 10805 10807 10813 10818 10818 10814 10815 10815 10817 10819 10819 10819 10818 10818 10818 10817 10816 10817 10817 10818 10817 10819 10819 10819 10819 10817 10816 10815 10813 10810 10809 10807 10805 10802 10801
10737 10742 10748 10748 10750 10757 10764 10763 10774 10779 10787 10791 10792 10794 10794 10796 10802 10810 10806 10803 10805 10807 10807 10808 10808 10809 10809 10808 10808 10806 10805 10805 10805 10805 10805 10807 10807 10806 10806 10805 10804 10803 10801 10799 10798 10796 10793 10791 10788
10721 10724 10728 10733 10737 10746 10752 10756 10763 10768 10776 10778 10781 10782 10783 10785 10790 10798 10792 10792 10794 10796 10797 10797 10797 10798 10798 10797 10797 10795 10794 10794 10793 10792 10792 10792 10792 10792 10793 10791 10790 10790 10788 10785 10783 10781 10780 10776 10774
10707 10709 10716 10719 10727 10733 10740 10745 10751 10755 10765 10766 10768 10770 10773 10776 10778 10780 10779 10780 10782 10784 10785 10785 10785 10785 10786 10785 10785 10784 10783 10782 10780 10779 10777 10777 10776 10776 10777 10777 10774 10773 10772 10769 10767 10766 10764 10762 10758
10692 10697 10703 10709 10712 10716 10724 10734 10737 10745 10751 10755 10755 10756 10760 10765 10764 10765 10765 10768 10770 10771 10771 10772 10772 10771 10771 10770 10770 10769 10768 10767 10766 10764 10763 10760 10759 10758 10757 10758 10758 10758 10757 10752 10749 10748 10748 10746 10740
10680 10683 10684 10690 10694 10698 10707 10724 10724 10731 10743 10743 10741 10743 10746 10749 10748 10750 10753 10754 10756 10758 10759 10759 10758 10757 10757 10756 10755 10754 10753 10751 10751 10748 10747 10745 10741 10741 10740 10737 10737 10737 10737 10735 10730 10728 10728 10726 10722
10666 10665 10669 10674 10680 10684 10698 10713 10718 10720 10725 10728 10728 10728 10730 10732 10730 10735 10738 10739 10742 10743 10744 10744 10743 10743 10743 10741 10740 10739 10738 10736 10734 10733 10730 10727 10726 10723 10721 10719 10716 10715 10714 10713 10709 10704 10702 10701 10701
10645 10650 10654 10656 10663 10670 10683 10690 10710 10712 10709 10708 10712 10713 10715 10712 10714 10719 10721 10723 10726 10728 10729 10728 10728 10727 10727 10726 10725 10724 10722 10721 10717 10715 10713 10709 10706 10703 10701 10699 10696 10694 10691 10689 10687 10682 10678 10675 10674
10627 10633 10634 10638 10643 10656 10663 10673 10700 10699 10695 10690 10690 10693 10694 10694 10698 10699 10703 10707 10710 10711 10711 10711 10711 10711 10709 10708 10706 10705 10705 10703 10701 10699 10696 10693 10689 10686 10682 10678 10675 10671 10667 10664 10661 10659 10654 10650 10648
10612 10617 10618 10620 10625 10648 10644 10651 10684 10676 10682 10671 10672 10672 10674 10676 10681 10684 10687 10690 10693 10695 10695 10695 10695 10694 10693 10690 10687 10684 10683 10682 10680 10678 10675 10673 10670 10666 10661 10656 10652 10650 10645 10641 10637 10634 10629 10624 10621
10585 10588 10596 10592 10603 10616 10617 10641 10658 10666 10663 10657 10653 10655 10656 10657 10661 10665 10666 10670 10672 10673 10673 10674 10675 10674 10673 10670 10667 10665 10663 10661 10658 10655 10653 10650 10647 10644 10639 10633 10628 10623 10619 10615 10612 10608 10604 10599 10595
10566 10578 10570 10566 10581 10589 10607 10628 10636 10645 10641 10641 10635 10635 10637 10638 10640 10640 10643 10645 10647 10650 10651 10652 10652 10650 10649 10648 10645 10643 10641 10639 10636 10633 10631 10628 10624 10620 10615 10609 10602 10597 10593 10588 10584 10580 10576 10572 10568
10550 10550 10547 10553 10562 10568 10597 10601 10621 10619 10624 10619 10622 10620 10621 10620 10617 10618 10621 10622 10626 10628 10628 10628 10628 10626 10625 10625 10623 10621 10618 10615 10612 10609 10607 10603 10599 10594 10589 10584 10579 10573 10566 10560 10556 10551 10547 10542 10536
10522 10529 10529 10529 10533 10547 10568 10580 10600 10611 10610 10600 10598 10597 10598 10597 10597 10599 10601 10603 10603 10604 10603 10603 10603 10603 10603 10602 10598 10595 10591 10589 10587 10584 10581 10577 10572 10568 10562 10555 10549 10544 10539 10533 10528 10522 10517 10510 10504
10498 10510 10505 10506 10531 10522 10528 10571 10584 10586 10583 10579 10574 10576 10574 10572 10574 10577 10578 10580 10580 10579 10579 10580 10581 10580 10577 10574 10570 10567 10565 10562 10560 10556 10552 10547 10542 10537 10531 10525 10519 10513 10508 10503 10497 10491 10485 10479 10472